Preview of NWS' New Version of Forecast
This preview is not operational and should not be used for support decisions.
Latest weather observations around

Bremerton, Bremerton National Airport (KPWT)

Using International System of Units (Switch to English Units)
Date/ Time (PST) Wind (kph) Vis. (km) Weather Sky Cond. Temp (°C) Rel. Humidity Wind Chill (°C) Heat Index (°C) Pressure Precip. (cm)
Air Dwpt 6 hour Altimeter (hPa) Sea level (hPa) 1 hr 3 hr 6 hr
Max Min
Jan 21 01:13 Calm 16.09 Mostly Cloudy BKN025 -2 -2     100%     1018        
Jan 20 23:56 Calm 16.09 Clear CLR -2 -2     100%     1017.3 1018.9      
Jan 20 21:56 Calm 12.87 Clear CLR -2 -2     100%     1015.9 1017.6      
Jan 20 21:08 Calm 16.09 Partly Cloudy SCT027 SCT037 -1 -1     100%     1015.2        
Jan 20 20:56 Calm 16.09 Mostly Cloudy BKN027 BKN037 -1 -1     96%     1014.9 1016.8      
Jan 20 20:47 Calm 14.48 Partly Cloudy SCT027 SCT037 -1 -1     100%     1014.9        
Jan 20 20:40 Calm 11.27 Mostly Cloudy BKN027 -1 -1     100%     1014.6        
Jan 20 19:56 Calm 14.48 Clear CLR -1 -1     96%     1014.6 1016.2      
Jan 20 19:48 Calm 3.22 Fog/Mist CLR -1 -1     100%     1014.6        
Jan 20 18:56 Calm 16.09 Clear CLR 1 0     96%     1014.2 1016      
Jan 20 17:56 Calm 16.09 Mostly Clear FEW032 3 1     89%     1013.9 1015.8      
Jan 20 16:56 NE 5 16.09 Mostly Clear FEW028 4 2     86% 3   1013.6 1015.4      
Jan 20 16:51 Calm 16.09 Partly Cloudy SCT028 5 2     81%     1013.6        
Jan 20 15:56 N 5 16.09 Cloudy OVC022 7 3     79% 6   1012.9 1014.9      
Jan 20 15:16 N 11 16.09 Mostly Cloudy BKN020 7 3     76% 5   1012.5        
Jan 20 14:56 NNE 17 16.09 Mostly Clear FEW022 8 3     73% 5   1012.2 1014.1      
Jan 20 13:56 NNE 8 16.09 Partly Cloudy SCT021 7 3     76% 6   1012.2 1014.1      
Jan 20 13:30 N 15 16.09 Mostly Cloudy BKN021 7 3     76% 4   1012.2        
Jan 20 12:56 NNW 8 16.09 Partly Cloudy SCT021 8 4     76% 7   1012.2 1014.1      
Jan 20 11:56 W 5 16.09 Clear CLR 6 4     89% 5   1012.2 1014.2      
Jan 20 10:56 NE 8 16.09 Clear CLR 6 3     82% 5   1012.9 1014.9      
Jan 20 08:56 ENE 15 16.09 Clear CLR 5 3     89% 2            
Jan 20 07:56 NE 13 16.09 Mostly Cloudy BKN110 4 4     97% 1   1013.2 1015      
Jan 20 06:20 NNE 11 16.09 Mostly Clear FEW007 4 3     93% 1   1013.9        
Jan 20 05:56 NNE 13 16.09 Clear CLR 4 3     96% 1   1014.2 1015.9      
Jan 20 04:56 NE 5 16.09 Clear CLR 2 2     100% 1   1015.2 1017      
Jan 20 02:56 Calm 11.27 Clear CLR 2 1     96%     1017.6 1019.6      
Jan 20 01:56 Calm 16.09 Clear CLR 2 2     100%     1018.3 1020.2      
Jan 20 00:49 Calm 16.09 Clear CLR 1 1     100%     1019.7        
Jan 20 00:40 Calm 4.02 Fog/Mist CLR 1 1     100%     1019.7        
Jan 20 00:33 Calm 2.82 Fog/Mist CLR 1 1     100%     1019.7        
Jan 20 00:25 Calm 1.61 Fog/Mist CLR 1 1     100%     1020        
Jan 20 00:12 Calm 0.8 Fog CLR 1 1     100%     1020.3        
Jan 19 23:56 Calm 0.4 Fog CLR 2 2     96%     1020.3        
Jan 19 23:53 Calm 0.8 Fog CLR 2 2     100%     1020.3        
Jan 19 23:49 Calm 2.82 Fog/Mist CLR 2 1     93%     1020.3        
Jan 19 23:45 Calm 4.83 Fog/Mist CLR 2 2     100%     1020.3        
Jan 19 23:39 Calm 2.01 Fog/Mist FEW001 2 2     100%     1020.7        
Jan 19 23:33 Calm 1.21 Fog/Mist VV001 2 2     100%     1020.7        
Jan 19 23:27 Calm 0.8 Fog VV002 2 2     100%     1020.7        
Jan 19 23:13 Calm 0.4 Fog BKN001 2 2     100%     1021        
Jan 19 23:06 Calm 0.8 Fog OVC001 3 2     93%     1021        
Jan 19 22:56 NNE 5 1.21 Fog/Mist OVC001 3 3     100% 1   1021        
Jan 19 22:49 NE 5 2.82 Fog/Mist BKN001 3 2     93% 2   1021        
Jan 19 22:43 Calm 8.05 Fog/Mist BKN001 3 2     93%     1021        
Jan 19 22:34 Calm 14.48 Partly Cloudy SCT001 3 2     93%     1021        
Jan 19 21:16 Calm 14.48 Mostly Clear FEW005 2 2     100%     1021        
Jan 19 20:56 Calm 16.09 Clear CLR 2 2     100%     1021 1022.9      
Jan 19 19:56 Calm 16.09 Clear CLR 5 4     93%     1021 1022.9      
Jan 19 17:56 SSW 15 16.09 Mostly Clear FEW080 6 5     96% 3   1021.3 1023.4      
Jan 19 16:56   16.09 Partly Cloudy SCT100 7 5     89%     1021.3 1023.4      
Jan 19 16:21 SSW 17 16.09 Mostly Cloudy FEW016 BKN110 7 6     93% 4   1021.3        
Jan 19 15:20 SSW 11 12.87 Light Rain BKN023 BKN031 OVC048 8 7     93% 6   1021   0    
Jan 19 14:56 S 11 16.09 Light Rain FEW014 SCT027 BKN055 8 7     93% 6   1021 1022.8 0    
Jan 19 14:39 SSW 17 16.09 Mostly Cloudy SCT010 BKN018 8 7     93% 5   1021        
Jan 19 13:56 S 13 16.09 Cloudy OVC012 8 7     93% 6   1020.7 1022.6 0    
Jan 19 13:51 SSW 13 16.09 Cloudy OVC012 8 7     93% 6   1020.7   0    
Jan 19 12:46 SSW 11 16.09 Light Rain SCT014 BKN036 OVC043 8 7     93% 6   1020.7   0    
Jan 19 11:56 SSW 15 16.09 Cloudy OVC015 8 7     90% 6   1020.3        
Jan 19 10:56 SSW 11 16.09 Cloudy OVC018 8 6     89% 6   1020.7        
Jan 19 10:10 SSW 9 16.09 Cloudy BKN023 OVC031 8 6     87% 6   1020.7        
Jan 19 08:56 SSW 13 14.48 Mostly Clear FEW013 7 6     96% 4   1019.3 1021.2 0    
Jan 19 08:46 SSW 15 14.48 Partly Cloudy SCT014 7 6     93% 4   1019.3   0    
Jan 19 08:10 SW 8 11.27 Light Rain BKN022 BKN027 BKN033 7 6     93% 6   1018.6   0    
Jan 19 07:56 S 11 9.66 Light Rain and Fog/Mist FEW022 BKN035 BKN043 7 6     93% 5            
Jan 19 06:56 SSW 15 16.09 Mostly Clear FEW014 7 6     93% 4   1018 1019.8      
Jan 19 05:56 SSW 17 12.87 Clear CLR 7 6     93% 4   1016.9 1018.7      
Jan 19 04:56 SSW 22 12.87 Clear CLR 8 7     93% 4   1015.9 1017.7      
Jan 19 03:18 SSW 26 14.48 Partly Cloudy SCT009 8 7     93% 4   1013.9        
Jan 19 02:56 SSW 30 16.09 Cloudy BKN009 OVC055 8 8     97% 4   1013.6 1015.4 0    
Jan 19 02:35 S 22 16.09 Cloudy FEW004 BKN009 OVC055 8 8     100% 5   1013.2   0    
Jan 19 02:25 S 21 16.09 Cloudy BKN004 OVC011 8 8     100% 5   1013.2   0    
Jan 19 01:56 SSW 18 16.09 Cloudy OVC003 7 7     100% 4   1012.5 1014.3 0    
Jan 19 00:56 SSW 11 16.09 Light Rain OVC003 6 5     96% 3       0 0  
Jan 19 00:40 SSW 9 6.44 Light Rain and Fog/Mist BKN003 OVC007 6 5     93% 4   1011.2   0    
Jan 18 23:56 SSW 11 4.83 Light Rain and Fog/Mist OVC009 6 5     96% 3   1011.2   0    
Jan 18 23:10 Calm 6.44 Light Rain and Fog/Mist FEW003 BKN007 OVC020 6 5     93%     1010.5   0    
Jan 18 23:04 Calm 6.44 Light Rain and Fog/Mist FEW003 SCT007 OVC019 6 5     93%     1010.5   0    
Jan 18 22:56 S 5 6.44 Light Rain and Fog/Mist SCT003 BKN007 OVC019 6 5     96% 5   1010.5   0    
Jan 18 22:53 SSW 8 4.83 Light Rain and Fog/Mist SCT003 BKN007 OVC017 6 5     93% 4   1010.5   0    
Jan 18 22:40 Calm 3.22 Light Rain and Fog/Mist OVC006 6 5     93%     1010.5   0    
Jan 18 22:10 Calm 4.83 Light Rain and Fog/Mist SCT004 OVC009 6 5     93%     1010.2   0    
Jan 18 21:56 Calm 6.44 Light Rain and Fog/Mist FEW002 BKN011 OVC029 5 5     100%     1010.2   0   1
Jan 18 21:42 S 5 4.02 Light Rain and Fog/Mist FEW002 OVC011 6 5     93% 5   1010.2   0    
Jan 18 20:30 Calm 11.27 Light Rain BKN009 BKN018 OVC034 5 4     93%     1010.8   0    
Jan 18 19:56 NW 5 11.27 Light Rain FEW003 BKN024 OVC029 5 4     96% 4   1011.2   0    
Jan 18 19:19 8 9.66 Light Rain and Fog/Mist BKN027 BKN032 OVC041 6 5     93% 4   1011.9   0    
Jan 18 18:56 NNW 5 16.09 Light Rain FEW030 OVC044 6 6     97% 5   1011.9   0 1  
Jan 18 17:56 NW 5 14.48 Rain OVC033 7 6     96% 6   1013.9   0    
Jan 18 17:17 WNW 8 16.09 Light Rain OVC031 7 6     93% 6   1014.6   0    
Jan 18 16:56 WNW 8 11.27 Light Rain FEW009 BKN026 OVC031 7 6     96% 5   1014.9   0    
Jan 18 16:37 Calm 4.83 Rain and Fog/Mist FEW002 SCT009 OVC028 7 6     93%     1015.2   0    
Jan 18 16:26 Calm 4.02 Rain and Fog/Mist FEW002 OVC030 7 6     93%     1015.6   0    
Jan 18 14:56 WSW 5 16.09 Light Rain FEW030 OVC041 7 6     93% 6   1016.9   0    
Jan 18 14:16 Calm 16.09 Partly Cloudy FEW005 SCT070 8 6     87%     1017.3        
Jan 18 13:56 Calm 16.09 Cloudy OVC065 8 6     89%     1017.3   0    
Jan 18 11:56 SW 11 16.09 Mostly Clear FEW055 7 6     93% 5   1019.3        
Jan 18 11:07 SW 17 16.09 Partly Cloudy SCT008 SCT050 7 6     93% 4   1020        
Jan 18 10:56 SW 17 16.09 Clear CLR 7 6     93% 4   1020        
Jan 18 09:56 SSW 26 16.09 Mostly Clear FEW044 7 6     93% 3   1019.7       0
Jan 18 08:56 SSW 15 16.09 Mostly Cloudy SCT008 SCT013 BKN031 6 5     93% 3   1019.7   0    
Jan 18 08:54 SSW 15 16.09 Cloudy SCT008 BKN013 OVC050 6 5     93% 3   1019.7   0    
Jan 18 08:47 SSW 15 16.09 Cloudy SCT008 BKN027 OVC050 6 5     93% 3   1019.7   0    
Jan 18 08:10 S 15 16.09 Light Rain SCT007 BKN037 6 5     93% 3   1019.3   0    
Jan 18 07:56 S 13 16.09 Light Rain BKN007 BKN031 6 5     96% 3   1019   0    
Jan 18 07:52 S 15 16.09 Light Rain BKN007 BKN033 6 5     93% 3       0    
Jan 18 07:18 S 17 16.09 Mostly Cloudy SCT007 BKN032 BKN039 6 5     93% 3   1018.6        
Jan 18 06:56 S 17 16.09 Cloudy BKN007 OVC029 6 5     93% 3   1018.6   0 0  
Jan 18 06:28 S 15 16.09 Mostly Cloudy BKN007 BKN021 6 6     100% 3   1018.6   0    
Jan 18 06:24 S 17 16.09 Light Rain SCT007 SCT021 6 6     100% 3   1018.6   0    
Jan 18 05:56 S 17 16.09 Mostly Cloudy SCT007 BKN027 BKN048 6 6     97% 3   1018.3   0    
Jan 18 05:53 S 17 16.09 Cloudy SCT007 BKN027 OVC048 6 6     100% 3   1018.3   0    
Jan 18 04:56 S 17 16.09 Cloudy BKN009 BKN023 OVC031 6 6     97% 3   1017.6 1019.3 0    
Jan 18 04:27 S 18 16.09 Light Rain SCT007 BKN023 BKN029 7 6     93% 4   1016.9   0    
Jan 18 04:02 SSW 9 11.27 Light Rain BKN007 BKN013 OVC034 6 6     100% 4   1016.6   0    
Jan 18 03:53 SSW 15 16.09 Cloudy FEW007 BKN023 OVC080 7 6     93% 4   1016.6   0    
Jan 18 03:32 SSW 18 16.09 Light Rain FEW014 BKN042 OVC080 7 5     87% 4   1016.3   0    
Jan 18 03:10 SSW 18 16.09 Light Rain SCT009 BKN016 OVC033 7 6     93% 4   1015.9   0    
Jan 18 02:56 SSW 22 16.09 Light Rain BKN009 BKN012 OVC038 7 6     93% 4   1015.6 1017.5 0    
Jan 18 01:56 S 18 16.09 Cloudy OVC007 7 7     97% 4            
May 15 09:04 SW 13 16.09 Cloudy OVC007 13 11     88%     1014.6        
May 14 08:56 Calm 16.09 Clear CLR 17 12     75%     1014.9 1016.4      
May 14 07:56 SSW 9 16.09 Clear CLR 14 12     87%     1015.2        
Notice The following observation data may not be complete
May 13 20:56 Calm 16.09 Clear CLR   11      %     1012.5        
May 13 12:56 NNE 11 16.09 Clear CLR 24 13     50%   24 1014.2        
May 13 02:56 Calm 16.09 Clear CLR 8 7     90%     1014.9 1016.4      
May 12 17:56 ENE 15 16.09 Clear CLR 23 9     40%   23 1015.6        
May 12 01:56 Calm 16.09 Clear CLR 7 7     100%     1022.7        
May 12 00:56 Calm 16.09 Clear CLR 8 8     97%     1022.7        
May 11 15:56 Calm 16.09 Mostly Cloudy BKN033 17 9     60%     1023.7        
May 11 12:56 SSE 8 16.09 Cloudy BKN024 OVC028 14 9     74%     1025.1 1027      
May 11 07:56 Calm 16.09 Cloudy BKN019 OVC027 9 8     93%     1025.1 1026.8      
Jun 11 09:56 SSW 5 16.09 Cloudy OVC005 11 9     89%     1018        
Jun 10 19:56 NNE 8 16.09 Clear CLR 17 7     53%     1012.5 1014.2      
Jun 10 15:56 WSW 5 16.09 Cloudy SCT046 OVC060 16 8     58%     1011.2        
Notice The following observation data may not be complete
Jun 10 08:40   16.09 Cloudy OVC006          %              
Jun 10 02:15 WSW 11 16.09 Cloudy OVC004 9 8     93% 7   1011.5        
Jun 09 16:56 SSW 13 16.09 Light Rain FEW026 14 8     65%     1010.2 1012.1 0   0
Jun 09 04:36 Calm 16.09 Cloudy SCT021 BKN028 OVC048 9 8     93%     1013.6        
Jun 08 09:48 SSW 15 16.09 Light Rain BKN006 OVC030 13 12     94%     1005.1   0    
Jun 08 04:56 SW 5 16.09 Light Rain SCT002 BKN010 OVC043 11 11     100%     1003.7   0   0
Jun 07 09:56 Calm 16.09 Clear   19 9     52%     1009.2        
Jun 06 02:56 E 8 16.09 Clear   12 6     66%     1016.9        
Jun 05 16:56 ENE 15 16.09 Clear   22 4     31%   21 1018.3